Location: Newark
(44.3681°N, 100.3364°W)
Time: 06:01:29
(UTC+00:00)

S-56A Canister/Altair - Pass Details

Date: 28 February 2020
Orbit: 634 x 2498 km, 38.9° (Epoch: 08 April)

Event Time Altitude Azimuth Distance (km) Brightness Sun altitude
Rises 13:52:08 0° 197° (SSW) 4,815 11.6 4.6°
Reaches altitude 10° 13:55:42 10° 185° (S) 4,107 11.4 5.2°
Maximum altitude 14:04:35 27° 134° (SE) 3,505 12.1 6.7°
Drops below altitude 10° 14:15:22 10° 85° (E) 5,086 13.1 8.5°
Sets 14:20:24 0° 75° (ENE) 6,174 13.1 9.4°
